Location: M?digepalle
(16.1753°N, 80.3496°E)
Time: 08:23:25
(UTC+00:00)

IUS-26 SRM-1 - Pass Details

Date: 29 October 2020
Orbit: 332 x 32210 km, 25.7° (Epoch: 27 November)

Event Time Altitude Azimuth Distance (km) Brightness Sun altitude
Rises 12:39:21 0° 277° (W) 6,500 9.9 -7.8°
Reaches altitude 10° 12:46:23 10° 290° (WNW) 3,227 7.7 -9.4°
Maximum altitude 12:51:07 21° 341° (NNW) 1,306 4.8 -10.5°
Enters shadow 12:53:20 10° 37° (NE) 1,437 4.5 -11.1°
